| time (UTC) | temp C | wind direction | speed KPH | gust KPH | rain 1hr cm | rain 24hr cm | rain mn cm | humidity % | barometer mb |
| 20260507214005 | 17 | 32 | 9.7 | 19.3 | 0.00 | 0.00 | 0.00 | 67 | 1018.2 |
| 20260507213509 | 17 | 302 | 9.7 | 19.3 | 0.00 | 0.00 | 0.00 | 69 | 1018.3 |
| 20260507213020 | 17 | 310 | 8.0 | 17.7 | 0.00 | 0.00 | 0.00 | 69 | 1018.3 |
| 20260507212508 | 17 | 326 | 11.3 | 19.3 | 0.00 | 0.00 | 0.00 | 69 | 1018.3 |
| 20260507212009 | 17 | 302 | 8.0 | 19.3 | 0.00 | 0.00 | 0.00 | 70 | 1018.3 |
| 20260507211526 | 17 | 300 | 9.7 | 17.7 | 0.00 | 0.00 | 0.00 | 70 | 1018.3 |
| 20260507211010 | 17 | 330 | 9.7 | 17.7 | 0.00 | 0.00 | 0.00 | 70 | 1018.3 |
| 20260507210503 | 17 | 311 | 8.0 | 22.5 | 0.00 | 0.00 | 0.00 | 70 | 1018.3 |
| 20260507210011 | 17 | 326 | 9.7 | 22.5 | 0.00 | 0.00 | 0.00 | 71 | 1018.4 |
| 20260507205503 | 17 | 331 | 12.9 | 27.4 | 0.00 | 0.00 | 0.00 | 71 | 1018.4 |
| 20260507205006 | 17 | 329 | 12.9 | 30.6 | 0.00 | 0.00 | 0.00 | 71 | 1018.4 |
| 20260507204514 | 17 | 300 | 14.5 | 30.6 | 0.00 | 0.00 | 0.00 | 71 | 1018.4 |
| 20260507204005 | 17 | 331 | 11.3 | 25.7 | 0.00 | 0.00 | 0.00 | 71 | 1018.3 |
| 20260507203509 | 17 | 309 | 9.7 | 25.7 | 0.00 | 0.00 | 0.00 | 71 | 1018.4 |
| 20260507203019 | 17 | 330 | 11.3 | 25.7 | 0.00 | 0.00 | 0.00 | 70 | 1018.4 |
| 20260507202509 | 18 | 290 | 14.5 | 25.7 | 0.00 | 0.00 | 0.00 | 70 | 1018.4 |
| 20260507202009 | 18 | 280 | 12.9 | 22.5 | 0.00 | 0.00 | 0.00 | 70 | 1018.4 |
| 20260507201527 | 18 | 312 | 12.9 | 20.9 | 0.00 | 0.00 | 0.00 | 69 | 1018.4 |
| 20260507201007 | 18 | 319 | 9.7 | 20.9 | 0.00 | 0.00 | 0.00 | 67 | 1018.4 |
| 20260507200510 | 18 | 335 | 11.3 | 22.5 | 0.00 | 0.00 | 0.00 | 66 | 1018.4 |
| 20260507200027 | 18 | 307 | 8.0 | 22.5 | 0.00 | 0.00 | 0.00 | 66 | 1018.4 |
| 20260507195507 | 18 | 319 | 9.7 | 19.3 | 0.00 | 0.00 | 0.00 | 67 | 1018.3 |
| 20260507195003 | 18 | 325 | 9.7 | 16.1 | 0.00 | 0.00 | 0.00 | 67 | 1018.3 |
| 20260507194511 | 18 | 295 | 8.0 | 22.5 | 0.00 | 0.00 | 0.00 | 68 | 1018.4 |
| 20260507194003 | 18 | 318 | 11.3 | 22.5 | 0.00 | 0.00 | 0.00 | 67 | 1018.4 |
| 20260507193506 | 18 | 302 | 12.9 | 20.9 | 0.00 | 0.00 | 0.00 | 66 | 1018.4 |
| 20260507193014 | 18 | 328 | 8.0 | 20.9 | 0.00 | 0.00 | 0.00 | 64 | 1018.4 |
| 20260507192505 | 18 | 327 | 9.7 | 20.9 | 0.00 | 0.00 | 0.00 | 65 | 1018.4 |
| 20260507192014 | 18 | 302 | 8.0 | 20.9 | 0.00 | 0.00 | 0.00 | 65 | 1018.4 |
| 20260507191520 | 18 | 302 | 9.7 | 20.9 | 0.00 | 0.00 | 0.00 | 66 | 1018.4 |
| 20260507191007 | 18 | 344 | 6.4 | 14.5 | 0.00 | 0.00 | 0.00 | 66 | 1018.4 |
| 20260507190510 | 18 | 314 | 8.0 | 16.1 | 0.00 | 0.00 | 0.00 | 66 | 1018.4 |
| 20260507190027 | 18 | 328 | 6.4 | 16.1 | 0.00 | 0.00 | 0.00 | 66 | 1018.3 |
| 20260507185509 | 18 | 312 | 8.0 | 16.1 | 0.00 | 0.00 | 0.00 | 65 | 1018.4 |
| 20260507185011 | 18 | 323 | 6.4 | 16.1 | 0.00 | 0.00 | 0.00 | 65 | 1018.3 |
| 20260507184525 | 18 | 304 | 6.4 | 12.9 | 0.00 | 0.00 | 0.00 | 65 | 1018.3 |
| 20260507184007 | 18 | 327 | 4.8 | 11.3 | 0.00 | 0.00 | 0.00 | 65 | 1018.2 |
| 20260507183504 | 18 | 317 | 3.2 | 11.3 | 0.00 | 0.00 | 0.00 | 65 | 1018.3 |
| 20260507183040 | 18 | 322 | 4.8 | 9.7 | 0.00 | 0.00 | 0.00 | 65 | 1018.3 |
| 20260507182505 | 18 | 330 | 3.2 | 16.1 | 0.00 | 0.00 | 0.00 | 65 | 1018.2 |
| 20260507182009 | 18 | 302 | 3.2 | 16.1 | 0.00 | 0.00 | 0.00 | 65 | 1018.2 |
| 20260507181515 | 18 | 317 | 6.4 | 16.1 | 0.00 | 0.00 | 0.00 | 65 | 1018.2 |
| 20260507181005 | 18 | 325 | 8.0 | 16.1 | 0.00 | 0.00 | 0.00 | 65 | 1018.2 |
| 20260507180511 | 18 | 18 | 6.4 | 12.9 | 0.00 | 0.00 | 0.00 | 66 | 1018.1 |
| 20260507180021 | 18 | 356 | 3.2 | 11.3 | 0.00 | 0.00 | 0.00 | 67 | 1018.0 |
| 20260507175511 | 18 | 23 | 3.2 | 12.9 | 0.00 | 0.00 | 0.00 | 70 | 1018.0 |
| 20260507175007 | 18 | 7 | 4.8 | 12.9 | 0.00 | 0.00 | 0.00 | 70 | 1018.0 |
| 20260507174523 | 18 | 317 | 4.8 | 11.3 | 0.00 | 0.00 | 0.00 | 71 | 1017.9 |
| 20260507174009 | 18 | 323 | 4.8 | 11.3 | 0.00 | 0.00 | 0.00 | 72 | 1017.9 |
| 20260507173509 | 18 | 303 | 6.4 | 9.7 | 0.00 | 0.00 | 0.00 | 73 | 1017.9 |
| 20260507173031 | 18 | 283 | 8.0 | 11.3 | 0.00 | 0.00 | 0.00 | 72 | 1017.8 |
| 20260507172509 | 18 | 297 | 8.0 | 14.5 | 0.00 | 0.00 | 0.00 | 72 | 1017.9 |
| 20260507172006 | 18 | 298 | 8.0 | 16.1 | 0.00 | 0.00 | 0.00 | 73 | 1017.9 |
| 20260507171511 | 18 | 264 | 12.9 | 16.1 | 0.00 | 0.00 | 0.00 | 72 | 1017.9 |
| 20260507171008 | 18 | 249 | 11.3 | 16.1 | 0.00 | 0.00 | 0.00 | 72 | 1017.9 |
| 20260507170507 | 18 | 249 | 11.3 | 12.9 | 0.00 | 0.00 | 0.00 | 70 | 1017.9 |
| 20260507170017 | 18 | 253 | 8.0 | 9.7 | 0.00 | 0.00 | 0.00 | 70 | 1017.8 |
| 20260507165510 | 18 | 243 | 8.0 | 11.3 | 0.00 | 0.00 | 0.00 | 70 | 1017.7 |
| 20260507165014 | 18 | 238 | 6.4 | 12.9 | 0.00 | 0.00 | 0.00 | 70 | 1017.6 |
| 20260507164524 | 18 | 232 | 9.7 | 16.1 | 0.00 | 0.00 | 0.00 | 70 | 1017.7 |
| 20260507164010 | 19 | 233 | 9.7 | 16.1 | 0.00 | 0.00 | 0.00 | 69 | 1017.7 |
| 20260507163507 | 19 | 245 | 12.9 | 16.1 | 0.00 | 0.00 | 0.00 | 68 | 1017.8 |
| 20260507163028 | 19 | 223 | 11.3 | 16.1 | 0.00 | 0.00 | 0.00 | 67 | 1017.8 |
| 20260507162510 | 20 | 232 | 11.3 | 14.5 | 0.00 | 0.00 | 0.00 | 66 | 1017.7 |
| 20260507162018 | 20 | 210 | 8.0 | 16.1 | 0.00 | 0.00 | 0.00 | 64 | 1017.7 |
| 20260507161527 | 20 | 203 | 11.3 | 16.1 | 0.00 | 0.00 | 0.00 | 63 | 1017.7 |
| 20260507161009 | 21 | 175 | 8.0 | 12.9 | 0.00 | 0.00 | 0.00 | 61 | 1017.6 |
| 20260507160529 | 21 | 248 | 8.0 | 14.5 | 0.00 | 0.00 | 0.00 | 59 | 1017.6 |
| 20260507160015 | 21 | 219 | 11.3 | 14.5 | 0.00 | 0.00 | 0.00 | 60 | 1017.6 |
| 20260507155509 | 21 | 248 | 9.7 | 14.5 | 0.00 | 0.00 | 0.00 | 60 | 1017.6 |
| 20260507155011 | 21 | 221 | 11.3 | 14.5 | 0.00 | 0.00 | 0.00 | 59 | 1017.6 |
| 20260507154520 | 21 | 213 | 9.7 | 14.5 | 0.00 | 0.00 | 0.00 | 60 | 1017.5 |
| 20260507154010 | 21 | 247 | 11.3 | 14.5 | 0.00 | 0.00 | 0.00 | 58 | 1017.5 |
| 20260507153507 | 21 | 190 | 8.0 | 14.5 | 0.00 | 0.00 | 0.00 | 59 | 1017.6 |
| 20260507153031 | 21 | 235 | 11.3 | 17.7 | 0.00 | 0.00 | 0.00 | 58 | 1017.6 |
| 20260507152512 | 21 | 250 | 11.3 | 17.7 | 0.00 | 0.00 | 0.00 | 58 | 1017.5 |
| 20260507152007 | 21 | 233 | 11.3 | 17.7 | 0.00 | 0.00 | 0.00 | 57 | 1017.6 |
| 20260507151526 | 21 | 220 | 11.3 | 14.5 | 0.00 | 0.00 | 0.00 | 57 | 1017.7 |
| 20260507151010 | 21 | 206 | 6.4 | 14.5 | 0.00 | 0.00 | 0.00 | 53 | 1017.6 |
| 20260507150513 | 21 | 159 | 9.7 | 16.1 | 0.00 | 0.00 | 0.00 | 53 | 1017.6 |
| 20260507150026 | 21 | 182 | 9.7 | 16.1 | 0.00 | 0.00 | 0.00 | 54 | 1017.6 |
| 20260507145507 | 21 | 214 | 12.9 | 16.1 | 0.00 | 0.00 | 0.00 | 53 | 1017.6 |
| 20260507145005 | 21 | 131 | 4.8 | 9.7 | 0.00 | 0.00 | 0.00 | 52 | 1017.6 |
| 20260507144520 | 22 | 210 | 3.2 | 11.3 | 0.00 | 0.00 | 0.00 | 52 | 1017.7 |
| 20260507144007 | 22 | 207 | 8.0 | 11.3 | 0.00 | 0.00 | 0.00 | 51 | 1017.6 |
| 20260507143510 | 21 | 180 | 6.4 | 11.3 | 0.00 | 0.00 | 0.00 | 51 | 1017.7 |
| 20260507143026 | 21 | 143 | 8.0 | 16.1 | 0.00 | 0.00 | 0.00 | 51 | 1017.7 |
| 20260507142508 | 21 | 227 | 11.3 | 16.1 | 0.00 | 0.00 | 0.00 | 51 | 1017.8 |
| 20260507142010 | 21 | 205 | 8.0 | 12.9 | 0.00 | 0.00 | 0.00 | 52 | 1017.8 |
| 20260507141525 | 21 | 210 | 8.0 | 14.5 | 0.00 | 0.00 | 0.00 | 51 | 1017.8 |
| 20260507141009 | 21 | 196 | 8.0 | 16.1 | 0.00 | 0.00 | 0.00 | 51 | 1017.8 |
| 20260507140512 | 21 | 195 | 9.7 | 19.3 | 0.00 | 0.00 | 0.00 | 52 | 1017.8 |
| 20260507140029 | 21 | 214 | 12.9 | 19.3 | 0.00 | 0.00 | 0.00 | 53 | 1017.8 |
| 20260507135510 | 21 | 159 | 8.0 | 17.7 | 0.00 | 0.00 | 0.00 | 54 | 1017.9 |
| 20260507135015 | 21 | 132 | 11.3 | 19.3 | 0.00 | 0.00 | 0.00 | 56 | 1018.0 |
| 20260507134530 | 21 | 155 | 11.3 | 19.3 | 0.00 | 0.00 | 0.00 | 53 | 1018.0 |
| 20260507134009 | 21 | 137 | 12.9 | 19.3 | 0.00 | 0.00 | 0.00 | 58 | 1018.0 |
| 20260507133515 | 20 | 143 | 11.3 | 22.5 | 0.00 | 0.00 | 0.00 | 61 | 1017.9 |
| 20260507133019 | 20 | 139 | 14.5 | 22.5 | 0.00 | 0.00 | 0.00 | 60 | 1018.0 |
| 20260507132507 | 20 | 155 | 14.5 | 22.5 | 0.00 | 0.00 | 0.00 | 62 | 1018.1 |
| 20260507132009 | 21 | 137 | 16.1 | 20.9 | 0.00 | 0.00 | 0.00 | 59 | 1018.1 |
| 20260507131533 | 21 | 162 | 12.9 | 16.1 | 0.00 | 0.00 | 0.00 | 54 | 1018.2 |
| 20260507131009 | 21 | 215 | 9.7 | 19.3 | 0.00 | 0.00 | 0.00 | 55 | 1018.1 |
| 20260507130510 | 21 | 180 | 12.9 | 19.3 | 0.00 | 0.00 | 0.00 | 56 | 1018.2 |
| 20260507130030 | 21 | 188 | 11.3 | 20.9 | 0.00 | 0.00 | 0.00 | 54 | 1018.2 |
| 20260507125511 | 21 | 201 | 12.9 | 22.5 | 0.00 | 0.00 | 0.00 | 56 | 1018.3 |
| 20260507125011 | 20 | 219 | 12.9 | 22.5 | 0.00 | 0.00 | 0.00 | 57 | 1018.3 |
| 20260507124532 | 20 | 169 | 17.7 | 22.5 | 0.00 | 0.00 | 0.00 | 60 | 1018.3 |
| 20260507124016 | 20 | 148 | 17.7 | 22.5 | 0.00 | 0.00 | 0.00 | 58 | 1018.4 |
| 20260507123516 | 20 | 132 | 16.1 | 22.5 | 0.00 | 0.00 | 0.00 | 59 | 1018.4 |
| 20260507123030 | 20 | 139 | 16.1 | 22.5 | 0.00 | 0.00 | 0.00 | 64 | 1018.5 |
| 20260507122512 | 20 | 140 | 16.1 | 22.5 | 0.00 | 0.00 | 0.00 | 61 | 1018.5 |
| 20260507122010 | 20 | 129 | 14.5 | 24.1 | 0.00 | 0.00 | 0.00 | 63 | 1018.5 |
| 20260507121519 | 19 | 136 | 17.7 | 24.1 | 0.00 | 0.00 | 0.00 | 65 | 1018.5 |
| 20260507121016 | 20 | 144 | 16.1 | 24.1 | 0.00 | 0.00 | 0.00 | 64 | 1018.5 |
| 20260507120508 | 20 | 134 | 16.1 | 24.1 | 0.00 | 0.00 | 0.00 | 62 | 1018.5 |
| 20260507115513 | 20 | 132 | 16.1 | 22.5 | 0.00 | 0.00 | 0.00 | 53 | 1018.5 |
| 20260507115016 | 20 | 189 | 14.5 | 20.9 | 0.00 | 0.00 | 0.00 | 55 | 1018.6 |
| 20260507114529 | 20 | 170 | 9.7 | 25.7 | 0.00 | 0.00 | 0.00 | 54 | 1018.6 |
| 20260507114010 | 20 | 163 | 11.3 | 25.7 | 0.00 | 0.00 | 0.00 | 58 | 1018.7 |
| 20260507113510 | 20 | 160 | 14.5 | 22.5 | 0.00 | 0.00 | 0.00 | 61 | 1018.8 |
| 20260507113028 | 20 | 136 | 14.5 | 22.5 | 0.00 | 0.00 | 0.00 | 64 | 1018.9 |
| 20260507112508 | 20 | 143 | 16.1 | 22.5 | 0.00 | 0.00 | 0.00 | 64 | 1018.9 |
| 20260507112014 | 20 | 174 | 14.5 | 22.5 | 0.00 | 0.00 | 0.00 | 64 | 1018.9 |
| 20260507111530 | 20 | 125 | 17.7 | 22.5 | 0.00 | 0.00 | 0.00 | 63 | 1018.8 |
| 20260507110509 | 20 | 126 | 12.9 | 19.3 | 0.00 | 0.00 | 0.00 | 64 | 1018.8 |
| 20260507110022 | 19 | 140 | 16.1 | 20.9 | 0.00 | 0.00 | 0.00 | 62 | 1018.8 |
| 20260507105509 | 19 | 142 | 14.5 | 20.9 | 0.00 | 0.00 | 0.00 | 64 | 1018.8 |
| 20260507105016 | 19 | 125 | 16.1 | 20.9 | 0.00 | 0.00 | 0.00 | 63 | 1018.8 |
| 20260507104528 | 19 | 145 | 14.5 | 20.9 | 0.00 | 0.00 | 0.00 | 63 | 1018.8 |
| 20260507102509 | 20 | 130 | 17.7 | 20.9 | 0.00 | 0.00 | 0.00 | 64 | 1018.8 |
| 20260507102015 | 19 | 136 | 14.5 | 19.3 | 0.00 | 0.00 | 0.00 | 63 | 1018.8 |
| 20260507101552 | 20 | 154 | 14.5 | 22.5 | 0.00 | 0.00 | 0.00 | 63 | 1018.8 |
| 20260507101011 | 20 | 141 | 16.1 | 22.5 | 0.00 | 0.00 | 0.00 | 62 | 1018.7 |
| 20260507100510 | 19 | 141 | 14.5 | 20.9 | 0.00 | 0.00 | 0.00 | 63 | 1018.8 |
| 20260507095510 | 19 | 138 | 14.5 | 20.9 | 0.00 | 0.00 | 0.00 | 60 | 1019.0 |
| 20260507095005 | 19 | 139 | 14.5 | 22.5 | 0.00 | 0.00 | 0.00 | 60 | 1019.1 |
| 20260507094003 | 19 | 143 | 16.1 | 22.5 | 0.00 | 0.00 | 0.00 | 61 | 1019.0 |
| 20260507093516 | 20 | 146 | 16.1 | 20.9 | 0.00 | 0.00 | 0.00 | 61 | 1019.2 |
| 20260507093007 | 19 | 127 | 16.1 | 20.9 | 0.00 | 0.00 | 0.00 | 61 | 1019.2 |
| 20260507091530 | 19 | 124 | 19.3 | 25.7 | 0.00 | 0.00 | 0.00 | 60 | 1019.0 |
| 20260507085003 | 19 | 127 | 20.9 | 24.1 | 0.00 | 0.00 | 0.00 | 63 | 1019.2 |
| 20260507084503 | 19 | 124 | 19.3 | 27.4 | 0.00 | 0.00 | 0.00 | 59 | 1019.2 |
| 20260507084002 | 19 | 136 | 16.1 | 27.4 | 0.00 | 0.00 | 0.00 | 63 | 1019.2 |
| 20260507083503 | 18 | 109 | 17.7 | 25.7 | 0.00 | 0.00 | 0.00 | 63 | 1019.1 |
| 20260507082005 | 19 | 143 | 17.7 | 24.1 | 0.00 | 0.00 | 0.00 | 64 | 1019.2 |
| 20260507081003 | 19 | 117 | 16.1 | 22.5 | 0.00 | 0.00 | 0.00 | 64 | 1019.3 |
| 20260507080515 | 19 | 134 | 14.5 | 20.9 | 0.00 | 0.00 | 0.00 | 62 | 1019.4 |
| 20260507080037 | 19 | 114 | 12.9 | 22.5 | 0.00 | 0.00 | 0.00 | 57 | 1019.4 |
| 20260507075506 | 19 | 99 | 14.5 | 22.5 | 0.00 | 0.00 | 0.00 | 58 | 1019.4 |
| 20260507075014 | 19 | 127 | 14.5 | 19.3 | 0.00 | 0.00 | 0.00 | 56 | 1019.3 |
| 20260507074516 | 19 | 86 | 11.3 | 19.3 | 0.00 | 0.00 | 0.00 | 57 | 1019.2 |
| 20260507074003 | 19 | 84 | 9.7 | 17.7 | 0.00 | 0.00 | 0.00 | 58 | 1019.2 |
| 20260507073503 | 19 | 145 | 11.3 | 19.3 | 0.00 | 0.00 | 0.00 | 59 | 1019.3 |
| 20260507072503 | 19 | 62 | 9.7 | 17.7 | 0.00 | 0.00 | 0.00 | 66 | 1019.3 |
| 20260507072002 | 19 | 131 | 11.3 | 17.7 | 0.00 | 0.00 | 0.00 | 66 | 1019.3 |
| 20260507071507 | 19 | 119 | 12.9 | 17.7 | 0.00 | 0.00 | 0.00 | 64 | 1019.2 |
| 20260507071003 | 20 | 102 | 6.4 | 11.3 | 0.00 | 0.00 | 0.00 | 65 | 1019.2 |
| 20260507070503 | 19 | 77 | 8.0 | 12.9 | 0.00 | 0.00 | 0.00 | 63 | 1019.2 |
| 20260507070012 | 19 | 115 | 6.4 | 12.9 | 0.00 | 0.00 | 0.00 | 62 | 1019.1 |
| 20260507065505 | 19 | 136 | 6.4 | 12.9 | 0.00 | 0.00 | 0.00 | 63 | 1019.1 |
| 20260507065012 | 19 | 122 | 8.0 | 12.9 | 0.00 | 0.00 | 0.00 | 63 | 1019.2 |
| 20260507064515 | 18 | 84 | 6.4 | 12.9 | 0.00 | 0.00 | 0.00 | 62 | 1019.2 |
| 20260507064007 | 19 | 105 | 6.4 | 9.7 | 0.00 | 0.00 | 0.00 | 61 | 1019.1 |
| 20260507063507 | 18 | 118 | 4.8 | 11.3 | 0.00 | 0.00 | 0.00 | 61 | 1019.2 |
| 20260507063019 | 18 | 116 | 6.4 | 11.3 | 0.00 | 0.00 | 0.00 | 63 | 1019.2 |
| 20260507062503 | 18 | 90 | 8.0 | 11.3 | 0.00 | 0.00 | 0.00 | 64 | 1019.2 |
| 20260507062003 | 18 | 91 | 6.4 | 9.7 | 0.00 | 0.00 | 0.00 | 65 | 1019.1 |
| 20260507061504 | 18 | 88 | 8.0 | 9.7 | 0.00 | 0.00 | 0.00 | 64 | 1019.1 |
| 20260507061003 | 19 | 113 | 4.8 | 9.7 | 0.00 | 0.00 | 0.00 | 60 | 1019.1 |
| 20260507060503 | 18 | 70 | 4.8 | 9.7 | 0.00 | 0.00 | 0.00 | 59 | 1019.0 |
| 20260507060005 | 19 | 111 | 4.8 | 8.0 | 0.00 | 0.00 | 0.00 | 60 | 1019.0 |
| 20260507055503 | 19 | 65 | 1.6 | 8.0 | 0.00 | 0.00 | 0.00 | 59 | 1019.1 |
| 20260507055006 | 18 | 53 | 3.2 | 8.0 | 0.00 | 0.00 | 0.00 | 58 | 1019.1 |
| 20260507054513 | 18 | 56 | 3.2 | 8.0 | 0.00 | 0.00 | 0.00 | 57 | 1019.0 |
| 20260507054004 | 19 | 49 | 1.6 | 8.0 | 0.00 | 0.00 | 0.00 | 60 | 1019.0 |
| 20260507053506 | 19 | 69 | 3.2 | 4.8 | 0.00 | 0.00 | 0.00 | 59 | 1019.0 |
| 20260507053017 | 19 | 132 | 1.6 | 4.8 | 0.00 | 0.00 | 0.00 | 62 | 1018.9 |
| 20260507052506 | 19 | 134 | 0.0 | 4.8 | 0.00 | 0.00 | 0.00 | 65 | 1018.9 |
| 20260507052009 | 19 | 68 | 0.0 | 4.8 | 0.00 | 0.00 | 0.00 | 63 | 1018.8 |
| 20260507051521 | 18 | 70 | 0.0 | 3.2 | 0.00 | 0.00 | 0.00 | 59 | 1018.8 |
| 20260507051007 | 18 | 37 | 0.0 | 3.2 | 0.00 | 0.00 | 0.00 | 61 | 1018.8 |
| 20260507050503 | 18 | 18 | 0.0 | 0.0 | 0.00 | 0.00 | 0.00 | 62 | 1018.8 |
| 20260507045510 | 16 | 359 | 0.0 | 1.6 | 0.00 | 0.00 | 0.00 | 65 | 1018.7 |
| 20260507045003 | 16 | 10 | 0.0 | 3.2 | 0.00 | 0.00 | 0.00 | 66 | 1018.7 |
| 20260507044546 | 15 | 309 | 0.0 | 3.2 | 0.00 | 0.00 | 0.00 | 67 | 1018.7 |
| 20260507043507 | 15 | 290 | 1.6 | 3.2 | 0.00 | 0.00 | 0.00 | 68 | 1018.5 |
| 20260507043040 | 14 | 290 | 1.6 | 3.2 | 0.00 | 0.00 | 0.00 | 68 | 1018.5 |
| 20260507042511 | 14 | 310 | 1.6 | 3.2 | 0.00 | 0.00 | 0.00 | 68 | 1018.5 |
| 20260507042012 | 14 | 311 | 1.6 | 3.2 | 0.00 | 0.00 | 0.00 | 68 | 1018.5 |
| 20260507041531 | 14 | 311 | 1.6 | 3.2 | 0.00 | 0.00 | 0.00 | 68 | 1018.5 |
| 20260507041006 | 14 | 330 | 0.0 | 3.2 | 0.00 | 0.00 | 0.00 | 69 | 1018.4 |
| 20260507040511 | 13 | 308 | 0.0 | 3.2 | 0.00 | 0.00 | 0.00 | 69 | 1018.4 |
| 20260507035516 | 13 | 305 | 3.2 | 6.4 | 0.00 | 0.00 | 0.00 | 69 | 1018.3 |
| 20260507035004 | 13 | 304 | 3.2 | 6.4 | 0.00 | 0.00 | 0.00 | 70 | 1018.4 |
| 20260507034010 | 13 | 294 | 4.8 | 6.4 | 0.00 | 0.00 | 0.00 | 71 | 1018.2 |
| 20260507033504 | 13 | 304 | 4.8 | 6.4 | 0.00 | 0.00 | 0.00 | 73 | 1018.2 |
| 20260507033032 | 13 | 299 | 4.8 | 6.4 | 0.00 | 0.00 | 0.00 | 74 | 1018.0 |
| 20260507032507 | 13 | 307 | 4.8 | 6.4 | 0.00 | 0.00 | 0.00 | 76 | 1018.1 |
| 20260507032006 | 12 | 302 | 4.8 | 6.4 | 0.00 | 0.00 | 0.00 | 78 | 1018.0 |
| 20260507031516 | 12 | 300 | 6.4 | 6.4 | 0.00 | 0.00 | 0.00 | 78 | 1017.9 |
| 20260507031011 | 12 | 303 | 4.8 | 6.4 | 0.00 | 0.00 | 0.00 | 78 | 1017.9 |
| 20260507030527 | 12 | 308 | 4.8 | 6.4 | 0.00 | 0.00 | 0.00 | 79 | 1018.0 |
| 20260507030056 | 13 | 302 | 3.2 | 4.8 | 0.00 | 0.00 | 0.00 | 78 | 1017.9 |
| 20260507025511 | 13 | 307 | 3.2 | 4.8 | 0.00 | 0.00 | 0.00 | 79 | 1017.9 |
| 20260507025011 | 13 | 307 | 3.2 | 4.8 | 0.00 | 0.00 | 0.00 | 79 | 1017.9 |
| 20260507024531 | 13 | 302 | 1.6 | 4.8 | 0.00 | 0.00 | 0.00 | 79 | 1017.8 |
| 20260507024007 | 13 | 306 | 4.8 | 4.8 | 0.00 | 0.00 | 0.00 | 79 | 1017.8 |
| 20260507023511 | 13 | 297 | 4.8 | 4.8 | 0.00 | 0.00 | 0.00 | 79 | 1017.8 |
| 20260507022504 | 13 | 307 | 1.6 | 6.4 | 0.00 | 0.00 | 0.00 | 78 | 1017.7 |
| 20260507022005 | 13 | 311 | 3.2 | 6.4 | 0.00 | 0.00 | 0.00 | 78 | 1017.7 |
| 20260507021514 | 13 | 306 | 3.2 | 4.8 | 0.00 | 0.00 | 0.00 | 79 | 1017.6 |
| 20260507021013 | 13 | 306 | 3.2 | 4.8 | 0.00 | 0.00 | 0.00 | 79 | 1017.6 |
| 20260507020514 | 13 | 307 | 1.6 | 3.2 | 0.00 | 0.00 | 0.00 | 79 | 1017.6 |
| 20260507020022 | 13 | 307 | 0.0 | 4.8 | 0.00 | 0.00 | 0.00 | 79 | 1017.5 |
| 20260507015509 | 13 | 310 | 0.0 | 4.8 | 0.00 | 0.00 | 0.00 | 79 | 1017.6 |
| 20260507015021 | 13 | 309 | 1.6 | 4.8 | 0.00 | 0.00 | 0.00 | 79 | 1017.5 |
| 20260507014527 | 13 | 314 | 1.6 | 6.4 | 0.00 | 0.00 | 0.00 | 79 | 1017.5 |
| 20260507014008 | 13 | 307 | 3.2 | 6.4 | 0.00 | 0.00 | 0.00 | 79 | 1017.5 |
| 20260507013518 | 13 | 316 | 1.6 | 4.8 | 0.00 | 0.00 | 0.00 | 78 | 1017.5 |
| 20260507013028 | 13 | 311 | 1.6 | 4.8 | 0.00 | 0.00 | 0.00 | 78 | 1017.5 |
| 20260507012507 | 13 | 314 | 3.2 | 8.0 | 0.00 | 0.00 | 0.00 | 78 | 1017.4 |
| 20260507011513 | 14 | 338 | 3.2 | 8.0 | 0.00 | 0.00 | 0.00 | 78 | 1017.4 |
| 20260507011008 | 14 | 287 | 3.2 | 4.8 | 0.00 | 0.00 | 0.00 | 78 | 1017.4 |
| 20260507010506 | 14 | 317 | 3.2 | 4.8 | 0.00 | 0.00 | 0.00 | 78 | 1017.5 |
| 20260507010028 | 14 | 316 | 3.2 | 8.0 | 0.00 | 0.00 | 0.00 | 78 | 1017.5 |
| 20260507005513 | 14 | 326 | 3.2 | 8.0 | 0.00 | 0.00 | 0.00 | 78 | 1017.4 |
| 20260507005006 | 14 | 328 | 3.2 | 4.8 | 0.00 | 0.00 | 0.00 | 78 | 1017.4 |
| 20260507004011 | 14 | 319 | 1.6 | 6.4 | 0.00 | 0.00 | 0.00 | 77 | 1017.4 |
| 20260507003511 | 14 | 323 | 3.2 | 6.4 | 0.00 | 0.00 | 0.00 | 77 | 1017.4 |
| 20260507003026 | 15 | 306 | 1.6 | 4.8 | 0.00 | 0.00 | 0.00 | 76 | 1017.4 |
| 20260507002514 | 15 | 307 | 1.6 | 4.8 | 0.00 | 0.00 | 0.00 | 76 | 1017.5 |
| 20260507002015 | 15 | 311 | 1.6 | 3.2 | 0.00 | 0.00 | 0.00 | 76 | 1017.5 |
| 20260507001531 | 15 | 319 | 1.6 | 4.8 | 0.00 | 0.00 | 0.00 | 76 | 1017.5 |
| 20260507001027 | 15 | 313 | 1.6 | 4.8 | 0.00 | 0.00 | 0.00 | 75 | 1017.5 |
| 20260507000506 | 15 | 301 | 1.6 | 4.8 | 0.00 | 0.00 | 0.00 | 75 | 1017.5 |
| 20260507000012 | 15 | 320 | 1.6 | 4.8 | 0.00 | 0.00 | 0.00 | 75 | 1017.5 |
| 20260506235507 | 15 | 306 | 1.6 | 6.4 | 0.00 | 0.00 | 0.00 | 75 | 1017.5 |
| 20260506235013 | 15 | 311 | 4.8 | 6.4 | 0.00 | 0.00 | 0.00 | 75 | 1017.5 |
| 20260506234517 | 15 | 330 | 3.2 | 6.4 | 0.00 | 0.00 | 0.00 | 75 | 1017.5 |
| 20260506234009 | 15 | 319 | 4.8 | 9.7 | 0.00 | 0.00 | 0.00 | 75 | 1017.5 |
| 20260506233510 | 15 | 297 | 4.8 | 9.7 | 0.00 | 0.00 | 0.00 | 75 | 1017.5 |
| 20260506233028 | 15 | 304 | 3.2 | 6.4 | 0.00 | 0.00 | 0.00 | 74 | 1017.5 |
| 20260506232628 | 15 | 311 | 3.2 | 6.4 | 0.00 | 0.00 | 0.00 | 74 | 1017.5 |
| 20260506232040 | 15 | 310 | 3.2 | 6.4 | 0.00 | 0.00 | 0.00 | 74 | 1017.5 |
| 20260506231529 | 15 | 323 | 3.2 | 6.4 | 0.00 | 0.00 | 0.00 | 74 | 1017.5 |
| 20260506231008 | 15 | 314 | 3.2 | 8.0 | 0.00 | 0.00 | 0.00 | 74 | 1017.6 |
| 20260506230510 | 15 | 315 | 4.8 | 8.0 | 0.00 | 0.00 | 0.00 | 74 | 1017.6 |
| 20260506224514 | 15 | 317 | 3.2 | 9.7 | 0.00 | 0.00 | 0.00 | 74 | 1017.6 |
| 20260506224007 | 15 | 306 | 4.8 | 9.7 | 0.00 | 0.00 | 0.00 | 74 | 1017.7 |
| 20260506223509 | 15 | 298 | 6.4 | 9.7 | 0.00 | 0.00 | 0.00 | 75 | 1017.7 |
| 20260506223019 | 15 | 294 | 4.8 | 11.3 | 0.00 | 0.00 | 0.00 | 75 | 1017.6 |
| 20260506222511 | 15 | 343 | 6.4 | 11.3 | 0.00 | 0.00 | 0.00 | 75 | 1017.6 |
| 20260506222009 | 15 | 314 | 8.0 | 14.5 | 0.00 | 0.00 | 0.00 | 75 | 1017.6 |
| 20260506221525 | 15 | 300 | 9.7 | 14.5 | 0.00 | 0.00 | 0.00 | 75 | 1017.7 |
| 20260506221008 | 15 | 313 | 8.0 | 12.9 | 0.00 | 0.00 | 0.00 | 75 | 1017.7 |
| 20260506220512 | 15 | 312 | 9.7 | 12.9 | 0.00 | 0.00 | 0.00 | 75 | 1017.7 |
| 20260506215013 | 15 | 321 | 8.0 | 12.9 | 0.00 | 0.00 | 0.00 | 74 | 1017.8 |
| 20260506214529 | 15 | 323 | 6.4 | 12.9 | 0.00 | 0.00 | 0.00 | 74 | 1017.8 |
| 20260506214026 | 15 | 303 | 8.0 | 11.3 | 0.00 | 0.00 | 0.00 | 73 | 1017.8 |